User: anonymous   Login
Location: Thompson
(55.7500°N, 97.8670°W)
Time: 04:14:46
(UTC-05:00)
Language:

Cosmos 1833 Rocket - Orbit

View from above orbital plane
View from above orbital plane
View from above satellite
View from above satellite

Ground track
Ground track

The orbit data is extracted from the following two-line orbital elements,

1 17590U 87027B   17083.89865895 -.00000126 +00000-0 -39040-4 0  9994
2 17590 071.0044 327.4667 0002938 058.1815 301.9594 14.16740532551954
Epoch (UTC): 24 March 2017 21:34:04
Eccentricity: 0.0002938
inclination: 71.0044°
perigee height: 834 km
apogee height: 838 km
right ascension of ascending node: 327.4667°
argument of perigee: 58.1815°
revolutions per day: 14.16740532
mean anomaly at epoch: 301.9594°
orbit number at epoch: 55195

The dashed part of the orbit path shows where the satellite is in the earth's shadow,  

DLR